Radiation Dose at Monitoring Post of Fukushima Daini Nuclear Power Station
Date,Time,MP-1(microSv/h),MP-2(microSv/h),MP-3(microSv/h),MP-4(microSv/h),MP-5(microSv/h),MP-6(microSv/h),MP-7(microSv/h),Wind Direction,Wind Velocity(m/s),Rain
2020/03/22,00:00,0.182,0.167,0.270,0.252,0.258,0.140,0.087,south-southeast,2.9,No
2020/03/22,00:10,0.182,0.167,0.270,0.250,0.259,0.141,0.085,south-southeast,4.3,No
2020/03/22,00:20,0.182,0.167,0.271,0.251,0.259,0.141,0.086,south-southeast,4.8,No
2020/03/22,00:30,0.182,0.167,0.269,0.252,0.258,0.141,0.085,south,4.2,No
2020/03/22,00:40,0.182,0.167,0.270,0.251,0.258,0.141,0.085,south,5.6,No
2020/03/22,00:50,0.182,0.167,0.271,0.251,0.258,0.141,0.086,south,5.9,No
2020/03/22,01:00,0.183,0.167,0.271,0.251,0.258,0.142,0.087,south,6.0,No
2020/03/22,01:10,0.183,0.168,0.272,0.252,0.257,0.142,0.086,south,5.1,No
2020/03/22,01:20,0.183,0.167,0.270,0.251,0.257,0.141,0.086,south,5.0,No
2020/03/22,01:30,0.182,0.167,0.271,0.252,0.258,0.142,0.086,south,4.2,No
2020/03/22,01:40,0.183,0.167,0.270,0.251,0.257,0.141,0.086,south-southeast,4.2,No
2020/03/22,01:50,0.182,0.167,0.270,0.251,0.258,0.141,0.086,south,3.2,No
2020/03/22,02:00,0.182,0.167,0.271,0.250,0.258,0.142,0.086,south,3.6,No
2020/03/22,02:10,0.183,0.167,0.271,0.251,0.259,0.141,0.086,south,2.5,No
2020/03/22,02:20,0.182,0.168,0.270,0.251,0.258,0.141,0.085,south,2.5,No
2020/03/22,02:30,0.182,0.167,0.270,0.251,0.258,0.141,0.086,south,2.6,No
2020/03/22,02:40,0.183,0.167,0.269,0.251,0.257,0.141,0.086,south,2.3,No
2020/03/22,02:50,0.182,0.166,0.270,0.252,0.259,0.142,0.086,south-southwest,2.3,No
2020/03/22,03:00,0.182,0.166,0.270,0.252,0.258,0.141,0.085,south-southwest,1.9,No
2020/03/22,03:10,0.183,0.168,0.272,0.250,0.259,0.142,0.086,south-southwest,2.3,No
2020/03/22,03:20,0.181,0.167,0.270,0.251,0.259,0.141,0.087,south-southwest,2.6,No
2020/03/22,03:30,0.183,0.167,0.269,0.252,0.258,0.142,0.085,southwest,2.8,No
2020/03/22,03:40,0.183,0.167,0.270,0.251,0.258,0.140,0.086,west-southwest,2.9,No
2020/03/22,03:50,0.182,0.168,0.271,0.250,0.258,0.141,0.085,west,1.8,No
2020/03/22,04:00,0.183,0.168,0.271,0.251,0.257,0.142,0.086,southwest,1.6,No
2020/03/22,04:10,0.183,0.166,0.270,0.250,0.257,0.141,0.086,southwest,2.1,No
2020/03/22,04:20,0.182,0.167,0.271,0.250,0.259,0.142,0.086,south-southwest,2.6,No
2020/03/22,04:30,0.182,0.167,0.271,0.251,0.258,0.141,0.085,south-southwest,2.7,No
2020/03/22,04:40,0.183,0.167,0.271,0.251,0.259,0.142,0.086,south,1.9,No
2020/03/22,04:50,0.183,0.167,0.270,0.251,0.257,0.141,0.086,south-southeast,2.0,No
2020/03/22,05:00,0.183,0.167,0.270,0.251,0.258,0.142,0.085,southeast,2.5,No
2020/03/22,05:10,0.183,0.167,0.269,0.251,0.258,0.141,0.086,southeast,2.4,No
2020/03/22,05:20,0.182,0.166,0.272,0.250,0.258,0.141,0.086,south-southeast,2.3,No
2020/03/22,05:30,0.182,0.168,0.269,0.251,0.258,0.141,0.085,south-southeast,2.8,No
2020/03/22,05:40,0.182,0.168,0.271,0.250,0.257,0.142,0.086,south-southeast,3.4,No
2020/03/22,05:50,0.183,0.166,0.270,0.250,0.257,0.141,0.086,south-southeast,3.7,No
2020/03/22,06:00,0.182,0.167,0.270,0.252,0.259,0.142,0.085,south-southeast,3.4,No
2020/03/22,06:10,0.182,0.167,0.270,0.251,0.258,0.142,0.087,south-southeast,3.8,No
2020/03/22,06:20,0.182,0.167,0.272,0.250,0.259,0.141,0.086,south-southeast,3.9,No
2020/03/22,06:30,0.182,0.167,0.270,0.251,0.259,0.141,0.086,south-southeast,3.7,No
2020/03/22,06:40,0.183,0.167,0.271,0.253,0.257,0.141,0.087,south,3.4,No
2020/03/22,06:50,0.181,0.167,0.271,0.250,0.258,0.142,0.086,south,3.6,No
2020/03/22,07:00,0.183,0.166,0.269,0.252,0.258,0.141,0.087,south,3.1,No
2020/03/22,07:10,0.183,0.167,0.271,0.252,0.259,0.141,0.085,south,4.2,No
2020/03/22,07:20,0.182,0.167,0.272,0.250,0.258,0.141,0.085,south,5.1,No
2020/03/22,07:30,0.183,0.166,0.270,0.250,0.258,0.142,0.086,south,5.4,No
2020/03/22,07:40,0.182,0.167,0.270,0.251,0.260,0.141,0.087,south,5.7,No
2020/03/22,07:50,0.183,0.168,0.271,0.249,0.257,0.142,0.086,south,6.9,No
2020/03/22,08:00,0.184,0.167,0.268,0.251,0.260,0.141,0.087,south,6.9,No
2020/03/22,08:10,0.182,0.167,0.269,0.249,0.258,0.140,0.085,south,6.8,No
2020/03/22,08:20,0.182,0.166,0.268,0.252,0.260,0.141,0.086,south,7.2,No
2020/03/22,08:30,0.182,0.167,0.271,0.250,0.256,0.140,0.085,south,7.0,No
2020/03/22,08:40,0.182,0.166,0.269,0.251,0.258,0.140,0.085,south,6.4,No
2020/03/22,08:50,0.181,0.166,0.270,0.249,0.257,0.141,0.085,south,5.9,No
2020/03/22,09:00,0.181,0.167,0.267,0.252,0.258,0.141,0.085,south,3.9,No
2020/03/22,09:10,0.181,0.166,0.271,0.249,0.256,0.141,0.085,southeast,3.2,No
2020/03/22,09:20,0.181,0.166,0.269,0.249,0.258,0.140,0.086,east-southeast,2.9,No
2020/03/22,09:30,0.181,0.166,0.269,0.244,0.256,0.140,0.085,east-southeast,3.4,No
2020/03/22,09:40,0.182,0.166,0.270,0.242,0.260,0.139,0.085,southeast,0.7,No
2020/03/22,09:50,0.182,0.167,0.269,0.242,0.258,0.140,0.085,-,CALM,No
2020/03/22,10:00,0.180,0.167,0.271,0.241,0.258,0.140,0.084,northeast,1.5,No
2020/03/22,10:10,0.184,0.166,0.269,0.240,0.259,0.141,0.084,northeast,3.3,No
2020/03/22,10:20,0.181,0.166,0.270,0.244,0.256,0.140,0.085,northeast,4.7,No
2020/03/22,10:30,0.183,0.168,0.270,0.240,0.259,0.140,0.086,north-northeast,6.1,No
2020/03/22,10:40,0.182,0.166,0.270,0.243,0.258,0.141,0.086,north-northeast,7.1,No
2020/03/22,10:50,0.182,0.167,0.271,0.246,0.257,0.140,0.085,north-northeast,8.1,No
2020/03/22,11:00,0.181,0.166,0.268,0.243,0.258,0.141,0.086,north-northeast,9.3,No
2020/03/22,11:10,0.183,0.167,0.272,0.245,0.256,0.141,0.085,north-northeast,8.4,No
2020/03/22,11:20,0.182,0.166,0.268,0.247,0.260,0.141,0.086,north-northeast,7.0,No
2020/03/22,11:30,0.183,0.168,0.272,0.251,0.258,0.141,0.086,north-northeast,5.3,No
2020/03/22,11:40,0.183,0.167,0.270,0.249,0.257,0.141,0.086,north,4.0,No
2020/03/22,11:50,0.183,0.166,0.270,0.250,0.258,0.141,0.086,east-northeast,2.3,Yes
2020/03/22,12:00,0.182,0.167,0.270,0.249,0.259,0.141,0.086,southeast,2.8,Yes
2020/03/22,12:10,0.181,0.167,0.271,0.252,0.260,0.142,0.085,southeast,1.5,No
2020/03/22,12:20,0.182,0.169,0.271,0.250,0.258,0.141,0.087,northeast,1.4,No
2020/03/22,12:30,0.183,0.166,0.270,0.250,0.257,0.138,0.086,northeast,3.6,No
2020/03/22,12:40,0.181,0.168,0.271,0.250,0.258,0.139,0.087,east-northeast,4.0,No
2020/03/22,12:50,0.182,0.167,0.270,0.248,0.257,0.139,0.086,east-northeast,3.8,Yes
2020/03/22,13:00,0.182,0.167,0.272,0.252,0.259,0.140,0.086,east-southeast,1.8,No
2020/03/22,13:10,0.183,0.167,0.271,0.249,0.259,0.139,0.086,southeast,1.6,No
2020/03/22,13:20,0.183,0.167,0.272,0.253,0.256,0.140,0.085,east,0.6,No
2020/03/22,13:30,0.182,0.167,0.269,0.250,0.260,0.139,0.087,northeast,2.6,No
2020/03/22,13:40,0.183,0.168,0.271,0.251,0.257,0.138,0.086,northeast,2.5,No
2020/03/22,13:50,0.183,0.167,0.270,0.251,0.259,0.139,0.086,north-northeast,2.8,No
2020/03/22,14:00,0.183,0.167,0.272,0.249,0.259,0.138,0.086,northeast,2.4,No
2020/03/22,14:10,0.181,0.167,0.271,0.253,0.257,0.141,0.086,north,1.9,No
2020/03/22,14:20,0.182,0.168,0.272,0.249,0.260,0.141,0.085,north,3.0,Yes
2020/03/22,14:30,0.182,0.168,0.272,0.252,0.258,0.141,0.086,north,2.7,No
2020/03/22,14:40,0.183,0.167,0.271,0.249,0.260,0.141,0.086,north-northwest,2.6,No
2020/03/22,14:50,0.182,0.168,0.272,0.252,0.259,0.141,0.086,north-northwest,2.1,Yes
2020/03/22,15:00,0.183,0.167,0.272,0.250,0.260,0.140,0.086,north-northwest,2.0,No
2020/03/22,15:10,0.183,0.168,0.273,0.252,0.258,0.141,0.086,north-northeast,2.9,No
2020/03/22,15:20,0.183,0.167,0.271,0.250,0.261,0.141,0.086,north-northeast,2.4,No
2020/03/22,15:30,0.183,0.168,0.273,0.252,0.256,0.142,0.086,north-northwest,2.7,No
2020/03/22,15:40,0.182,0.169,0.271,0.252,0.260,0.141,0.086,north-northwest,3.7,No
2020/03/22,15:50,0.183,0.168,0.270,0.251,0.257,0.140,0.086,north-northwest,4.5,No
2020/03/22,16:00,0.181,0.168,0.273,0.252,0.259,0.140,0.086,west-northwest,12.0,No
2020/03/22,16:10,0.182,0.168,0.271,0.251,0.257,0.141,0.086,west-northwest,14.0,No
2020/03/22,16:20,0.182,0.166,0.271,0.252,0.257,0.141,0.085,west-northwest,10.0,No
2020/03/22,16:30,0.183,0.167,0.270,0.251,0.259,0.142,0.087,west-northwest,8.9,No
2020/03/22,16:40,0.182,0.167,0.273,0.252,0.256,0.141,0.085,west,14.6,No
2020/03/22,16:50,0.182,0.167,0.272,0.251,0.259,0.142,0.086,west-northwest,15.9,No
2020/03/22,17:00,0.182,0.167,0.272,0.251,0.257,0.141,0.086,west-northwest,12.6,No
2020/03/22,17:10,0.184,0.168,0.272,0.252,0.260,0.142,0.087,northwest,7.9,No
2020/03/22,17:20,0.183,0.168,0.271,0.253,0.258,0.141,0.086,west-northwest,6.9,No
2020/03/22,17:30,0.182,0.168,0.274,0.252,0.261,0.141,0.086,northwest,6.4,No
2020/03/22,17:40,0.184,0.168,0.272,0.251,0.258,0.141,0.086,north,5.4,No
2020/03/22,17:50,0.183,0.168,0.271,0.252,0.261,0.141,0.086,north-northwest,5.6,No
2020/03/22,18:00,0.183,0.167,0.273,0.251,0.259,0.142,0.086,west-northwest,7.2,No
2020/03/22,18:10,0.183,0.168,0.272,0.252,0.259,0.142,0.086,north-northwest,8.5,No
2020/03/22,18:20,0.183,0.168,0.271,0.252,0.261,0.142,0.086,northwest,10.9,No
2020/03/22,18:30,0.183,0.168,0.272,0.252,0.258,0.141,0.086,northwest,7.5,No
2020/03/22,18:40,0.182,0.169,0.272,0.252,0.260,0.142,0.085,northwest,9.5,No
2020/03/22,18:50,0.183,0.166,0.273,0.252,0.258,0.141,0.086,west-northwest,9.5,No
2020/03/22,19:00,0.182,0.167,0.272,0.251,0.260,0.141,0.086,west-northwest,7.1,No
2020/03/22,19:10,0.182,0.168,0.272,0.251,0.259,0.141,0.086,north-northwest,6.4,No
2020/03/22,19:20,0.183,0.168,0.272,0.251,0.260,0.141,0.086,northwest,6.9,No
2020/03/22,19:30,0.183,0.168,0.271,0.251,0.260,0.142,0.086,northwest,10.0,No
2020/03/22,19:40,0.182,0.168,0.272,0.253,0.259,0.142,0.086,northwest,8.7,No
2020/03/22,19:50,0.183,0.168,0.273,0.250,0.259,0.142,0.086,north-northwest,5.3,No
2020/03/22,20:00,0.182,0.167,0.271,0.252,0.259,0.142,0.086,north-northwest,7.9,No
2020/03/22,20:10,0.183,0.169,0.271,0.253,0.258,0.141,0.086,north-northwest,7.1,No
2020/03/22,20:20,0.182,0.168,0.274,0.252,0.260,0.142,0.086,north-northwest,7.6,No
2020/03/22,20:30,0.182,0.168,0.272,0.252,0.258,0.141,0.086,northwest,4.8,No
2020/03/22,20:40,0.184,0.168,0.271,0.252,0.258,0.141,0.085,west-northwest,5.5,No
2020/03/22,20:50,0.182,0.167,0.274,0.252,0.260,0.142,0.086,northwest,6.2,No
2020/03/22,21:00,0.182,0.168,0.272,0.252,0.257,0.142,0.086,west-northwest,8.1,No
2020/03/22,21:10,0.183,0.168,0.272,0.252,0.259,0.141,0.086,west-northwest,8.4,No
2020/03/22,21:20,0.183,0.168,0.273,0.251,0.260,0.142,0.086,west-northwest,9.5,No
2020/03/22,21:30,0.183,0.167,0.270,0.252,0.259,0.141,0.086,west-northwest,8.1,No
2020/03/22,21:40,0.183,0.167,0.271,0.252,0.259,0.142,0.085,northwest,7.3,No
2020/03/22,21:50,0.182,0.167,0.272,0.251,0.259,0.143,0.086,northwest,6.0,No
2020/03/22,22:00,0.183,0.168,0.272,0.252,0.259,0.142,0.087,northwest,6.8,No
2020/03/22,22:10,0.182,0.168,0.271,0.252,0.260,0.142,0.086,northwest,6.9,No
2020/03/22,22:20,0.182,0.167,0.272,0.251,0.259,0.141,0.085,north-northwest,4.3,No
2020/03/22,22:30,0.183,0.166,0.272,0.250,0.258,0.141,0.086,north-northwest,3.5,No
2020/03/22,22:40,0.182,0.167,0.272,0.252,0.259,0.141,0.086,north-northeast,2.9,No
2020/03/22,22:50,0.182,0.168,0.273,0.252,0.259,0.142,0.084,north-northwest,3.1,No
2020/03/22,23:00,0.182,0.166,0.273,0.251,0.259,0.142,0.085,north,2.5,No
2020/03/22,23:10,0.182,0.168,0.272,0.252,0.260,0.142,0.087,north,2.6,No
2020/03/22,23:20,0.182,0.167,0.272,0.252,0.258,0.143,0.086,north-northwest,2.6,No
2020/03/22,23:30,0.184,0.167,0.272,0.252,0.259,0.141,0.086,northwest,3.4,No
2020/03/22,23:40,0.183,0.168,0.271,0.251,0.259,0.141,0.086,north-northwest,3.4,No
2020/03/22,23:50,0.184,0.168,0.272,0.252,0.259,0.142,0.085,north,2.4,No
